Location: Dominguez Junction
(33.8634°N, 118.2179°W)
Time: 22:38:23
(UTC+00:00)

YAOGAN 6 - Pass Details

Date: 29 October 2020
Orbit: 465 x 504 km, 97.0° (Epoch: 29 November)

Event Time Altitude Azimuth Distance (km) Brightness Sun altitude
Rises 13:26:48 0° 19° (NNE) 2,592 6.4 -9.6°
Reaches altitude 10° 13:28:59 10° 28° (NNE) 1,699 5.5 -9.1°
Maximum altitude 13:32:27 39° 98° (E) 747 4.3 -8.4°
Drops below altitude 10° 13:35:50 10° 169° (SSE) 1,667 5.6 -7.7°
Sets 13:37:57 0° 177° (S) 2,536 6.4 -7.3°
